Location: Strawberry
(45.6646°N, 111.9596°W)
Time: 16:59:15
(UTC+00:00)

Transit 4A - All Passes

Search period start: 26 September 2022 00:00
Search period end: 06 October 2022 00:00
Orbit: 869 x 975 km, 66.8° (Epoch: 25 September)

Date Brightness Start Highest point End Pass type
(mag) Time Alt. Az. Time Alt. Az. Time Alt. Az.
26 Sep - 05:54:38 10° SSE 05:59:38 26° ESE 06:04:34 10° NE visible
26 Sep - 07:39:26 10° SW 07:45:35 62° NW 07:51:36 10° NNE visible
26 Sep - 09:29:08 10° WNW 09:33:10 18° NNW 09:37:09 10° N visible
26 Sep - 13:08:36 10° N 13:11:38 14° NNE 13:14:38 10° NE daylight
26 Sep - 14:53:56 10° NNW 14:59:36 45° NE 15:05:09 10° ESE daylight
26 Sep - 16:40:34 10° NW 16:45:48 35° WSW 16:50:58 10° S daylight
27 Sep - 06:03:02 10° S 06:08:41 38° ESE 06:14:13 10° NE visible
27 Sep - 07:49:03 10° WSW 07:54:58 45° NW 08:00:46 10° NNE visible
27 Sep - 09:39:42 10° WNW 09:42:55 14° NNW 09:46:06 10° N visible
27 Sep - 13:17:33 10° N 13:21:22 17° NNE 13:25:09 10° ENE daylight
27 Sep - 15:03:07 10° NNW 15:08:57 63° NE 15:14:43 10° SE daylight
27 Sep - 16:50:17 10° WNW 16:54:48 24° WSW 16:59:16 10° SSW daylight
28 Sep - 06:11:46 10° S 06:17:48 54° ESE 06:23:41 10° NE visible
28 Sep - 07:58:52 10° WSW 08:04:25 34° NW 08:09:52 10° NNE visible
28 Sep - 09:50:29 10° NW 09:52:43 12° NNW 09:54:57 10° N visible
28 Sep - 13:26:34 10° NNW 13:31:03 22° NE 13:35:29 10° E daylight
28 Sep - 15:12:20 10° NNW 15:18:15 88° ENE 15:24:03 10° SSE daylight
28 Sep - 17:00:26 10° WNW 17:03:44 16° WSW 17:07:02 10° SW daylight
29 Sep - 04:38:49 10° SE 04:41:35 13° ESE 04:44:19 10° ENE night (unlit)
29 Sep - 06:20:46 10° SSW 06:26:58 77° ESE 06:33:03 10° NE visible
29 Sep - 08:08:52 10° W 08:13:57 26° NW 08:18:57 10° NNE visible
29 Sep - 10:01:44 10° NNW 10:02:36 10° NNW 10:03:28 10° N visible
29 Sep - 11:50:51 10° N 11:52:05 11° NNE 11:53:18 10° NNE visible
29 Sep - 13:35:36 10° NNW 13:40:38 28° NE 13:45:34 10° E daylight
29 Sep - 15:21:38 10° NW 15:27:27 65° WSW 15:33:10 10° SSE daylight
30 Sep - 04:46:08 10° SSE 04:50:30 20° ESE 04:54:48 10° ENE night (unlit)
30 Sep - 06:30:01 10° SW 06:36:14 77° NW 06:42:18 10° NNE visible
30 Sep - 08:19:06 10° W 08:23:34 20° NW 08:27:58 10° NNE visible
30 Sep - 11:59:31 10° N 12:01:56 12° NNE 12:04:19 10° NE visible
30 Sep - 13:44:42 10° NNW 13:50:08 37° NE 13:55:29 10° ESE daylight
30 Sep - 15:31:02 10° NW 15:36:34 45° WSW 15:42:02 10° S daylight
01 Oct - 04:54:14 10° SSE 04:59:30 29° ESE 05:04:39 10° NE night (unlit)
01 Oct - 06:39:28 10° SW 06:45:32 56° NW 06:51:30 10° NNE visible
01 Oct - 08:29:31 10° WNW 08:33:15 16° NNW 08:36:57 10° N visible
01 Oct - 12:08:25 10° N 12:11:43 15° NNE 12:15:00 10° ENE visible
01 Oct - 13:53:50 10° NNW 13:59:34 50° NE 14:05:11 10° SE daylight
01 Oct - 15:40:37 10° NW 15:45:37 30° WSW 15:50:36 10° S daylight
02 Oct - 05:02:46 10° S 05:08:33 43° ESE 05:14:14 10° NE night (unlit)
02 Oct - 06:49:09 10° WSW 06:54:57 41° NW 07:00:38 10° NNE visible
02 Oct - 08:40:09 10° NW 08:43:02 13° NNW 08:45:53 10° N visible
02 Oct - 12:17:23 10° NNW 12:21:27 19° NNE 12:25:27 10° ENE visible
02 Oct - 14:03:00 10° NNW 14:08:54 71° NE 14:14:41 10° SE daylight
02 Oct - 15:50:27 10° WNW 15:54:36 21° WSW 15:58:45 10° SSW daylight
03 Oct - 05:11:36 10° SSW 05:17:42 61° ESE 05:23:39 10° NE night (unlit)
03 Oct - 06:59:02 10° WSW 07:04:26 31° NW 07:09:44 10° NNE visible
03 Oct - 08:51:03 10° NW 08:52:52 11° NNW 08:54:39 10° N visible
03 Oct - 12:26:25 10° NNW 12:31:05 24° NE 12:35:42 10° E visible
03 Oct - 14:12:16 10° NW 14:18:09 83° WSW 14:23:57 10° SSE daylight
03 Oct - 16:00:52 10° WNW 16:03:31 13° WSW 16:06:10 10° SW daylight
04 Oct - 03:37:58 10° SE 03:41:23 15° ESE 03:44:46 10° ENE night (unlit)
04 Oct - 05:20:41 10° SSW 05:26:54 86° ESE 05:32:58 10° NNE visible
04 Oct - 07:09:07 10° W 07:13:59 24° NW 07:18:46 10° NNE visible
04 Oct - 10:50:33 10° N 10:52:13 11° NNE 10:53:52 10° NNE visible
04 Oct - 12:35:28 10° NNW 12:40:39 31° NE 12:45:44 10° ESE visible
04 Oct - 14:21:36 10° NW 14:27:20 57° WSW 14:32:59 10° SSE daylight
05 Oct - 03:45:38 10° SSE 03:50:20 23° ESE 03:54:58 10° ENE night (unlit)
05 Oct - 05:30:00 10° SW 05:36:10 69° NW 05:42:12 10° NNE visible
05 Oct - 07:19:25 10° WNW 07:23:38 19° NNW 07:27:47 10° NNE visible
05 Oct - 10:59:20 10° N 11:02:03 13° NNE 11:04:44 10° NE visible
05 Oct - 12:44:34 10° NNW 12:50:07 41° NE 12:55:34 10° ESE visible
05 Oct - 14:31:04 10° NW 14:36:26 39° WSW 14:41:45 10° S daylight
